Minneapolis Crystal, MN

5:32 PM CDT on June 23, 2017 (GMT -0500)
Crystal

Weather History for KMIC - November, 2011

Change the Weather History Date:

Saturday, November 19, 2011

  Actual Average Record
Temperature  
Mean Temperature 30 °F -  
Max Temperature 35 °F 38 °F 59 °F (2012)
Min Temperature 23 °F 24 °F 15 °F (2006)
Degree Days  
Heating Degree Days 36    
Moisture  
Dew Point 23 °F    
Average Humidity 79    
Maximum Humidity 86    
Minimum Humidity 64    
Precipitation  
Precipitation 0.02 in - - ()
Sea Level Pressure  
Sea Level Pressure 29.86 in    
Wind  
Wind Speed 10 mph (North)    
Max Wind Speed 17 mph    
Max Gust Speed 25 mph    
Visibility 6 miles    
Events Snow    
Averages and records for this station are not official NWS values.
T = Trace of Precipitation, MM = Missing Value Source: NWS Daily Summary

Daily Weather History Graph

Daily Weather History Graph

Search for Another Location

Airport or City:

Trip Planner

Search our weather history database for the weather conditions in past years. The results will help you decide how hot, cold, wet, or windy it might be!

Date:

Astronomy

Nov. 19, 2011 Rise Set
Actual Time 7:16 AM CST 4:40 PM CST
Civil Twilight 6:44 AM CST 5:12 PM CST
Nautical Twilight 6:08 AM CST 5:48 PM CST
Astronomical Twilight 5:33 AM CST 6:23 PM CST
Moon 12:20 AM CST (11/19) 1:13 PM CST (11/19)
Length of Visible Light 10h 28m
Length of Day
9h 24m
Last Quarter, 38% of the Moon is Illuminated
Nov 19
Last Quarter
Nov 25
New
Dec 2
First Quarter
Dec 10
Full
Dec 17
Last Quarter

Hourly Weather History & Observations

Time (CST) Temp. Windchill Dew Point Humidity Pressure Visibility Wind Dir Wind Speed Gust Speed Precip Events Conditions
12:53 AM 35.1 °F 29.3 °F 27.0 °F 72% 29.77 in 10.0 mi NW 6.9 mph - N/A   Overcast
1:53 AM 32.0 °F 27.5 °F 26.1 °F 79% 29.77 in 10.0 mi NW 4.6 mph - N/A   Scattered Clouds
2:53 AM 33.1 °F 24.4 °F 27.0 °F 78% 29.79 in 10.0 mi NNW 11.5 mph - N/A   Mostly Cloudy
3:53 AM 32.0 °F 24.8 °F 26.1 °F 79% 29.79 in 10.0 mi North 8.1 mph - N/A   Overcast
5:14 AM 32.0 °F 24.2 °F 26.6 °F 80% 29.77 in 9.0 mi North 9.2 mph - N/A   Overcast
5:30 AM 32.0 °F 26.4 °F 24.8 °F 75% 29.76 in 10.0 mi NNE 5.8 mph - N/A   Mostly Cloudy
5:39 AM 30.2 °F 22.6 °F 24.8 °F 80% 29.76 in 10.0 mi North 8.1 mph - N/A   Mostly Cloudy
5:53 AM 30.9 °F 25.2 °F 25.0 °F 79% 29.79 in 10.0 mi NNE 5.8 mph - N/A   Mostly Cloudy
6:16 AM 30.2 °F 25.4 °F 24.8 °F 80% 29.77 in 10.0 mi NNE 4.6 mph - N/A   Scattered Clouds
6:53 AM 30.9 °F 27.5 °F 25.0 °F 79% 29.80 in 10.0 mi NNE 3.5 mph - N/A   Partly Cloudy
7:53 AM 32.0 °F 27.5 °F 25.0 °F 75% 29.82 in 8.0 mi NNE 4.6 mph - N/A   Overcast
8:53 AM 32.0 °F 23.6 °F 24.1 °F 73% 29.84 in 9.0 mi North 10.4 mph - N/A   Overcast
9:00 AM 32.0 °F 22.5 °F 24.8 °F 75% 29.80 in 10.0 mi NNE 12.7 mph - N/A   Overcast
9:36 AM 30.2 °F 19.8 °F 23.0 °F 75% 29.75 in 10.0 mi NNE 13.8 mph 23.0 mph N/A   Overcast
9:53 AM 30.9 °F 22.2 °F 23.0 °F 72% 29.80 in 10.0 mi North 10.4 mph - N/A   Overcast
10:53 AM 30.9 °F 20.7 °F 21.9 °F 69% 29.81 in 10.0 mi NNE 13.8 mph - N/A   Overcast
11:53 AM 30.9 °F 20.2 °F 19.9 °F 64% 29.79 in 4.0 mi North 15.0 mph 23.0 mph 0.00 in Snow Light Snow
12:53 PM 30.0 °F 18.3 °F 21.9 °F 72% 29.78 in 1.8 mi North 17.3 mph 24.2 mph 0.00 in Snow Light Snow
1:24 PM 28.4 °F 17.5 °F 24.8 °F 86% 29.77 in 2.5 mi North 13.8 mph 21.9 mph 0.00 in Snow Light Snow
1:53 PM 28.0 °F 16.1 °F 23.0 °F 81% 29.80 in 1.2 mi North 16.1 mph 21.9 mph 0.00 in Snow Light Snow
1:59 PM 28.4 °F 16.2 °F 23.0 °F 80% 29.76 in 0.8 mi North 17.3 mph 24.2 mph 0.00 in Snow Light Snow
2:45 PM 26.6 °F 13.8 °F 23.0 °F 86% 29.78 in 1.0 mi North 17.3 mph 23.0 mph 0.00 in Snow Light Snow
2:53 PM 27.0 °F 14.7 °F 23.0 °F 85% 29.82 in 0.8 mi North 16.1 mph 23.0 mph 0.00 in Snow Light Snow
3:14 PM 28.4 °F 18.0 °F 23.0 °F 80% 29.81 in 1.2 mi North 12.7 mph 25.3 mph 0.00 in Snow Light Snow
3:29 PM 28.4 °F 18.0 °F 23.0 °F 80% 29.82 in 2.0 mi North 12.7 mph - 0.00 in Snow Light Snow
3:53 PM 28.0 °F 18.6 °F 23.0 °F 81% 29.88 in 1.2 mi North 10.4 mph 19.6 mph 0.01 in Snow Light Snow
4:25 PM 26.6 °F 16.8 °F 23.0 °F 86% 29.86 in 0.8 mi North 10.4 mph - 0.01 in Snow Light Snow
4:51 PM 26.6 °F 16.2 °F 23.0 °F 86% 29.87 in 1.2 mi North 11.5 mph 17.3 mph 0.01 in Snow Light Snow
4:53 PM 27.0 °F 17.3 °F 23.0 °F 85% 29.90 in 1.2 mi North 10.4 mph 17.3 mph 0.01 in Snow Light Snow
5:00 PM 26.6 °F 17.5 °F 23.0 °F 86% 29.87 in 1.2 mi North 9.2 mph - 0.00 in Snow Light Snow
5:34 PM 26.6 °F 16.8 °F 23.0 °F 86% 29.88 in 2.0 mi North 10.4 mph - 0.00 in Snow Light Snow
5:59 PM 26.6 °F 16.8 °F 23.0 °F 86% 29.89 in 2.5 mi North 10.4 mph - 0.00 in Snow Light Snow
7:00 PM 26.6 °F 16.2 °F 21.2 °F 80% 29.95 in 7.0 mi NNW 11.5 mph - 0.00 in Snow Light Snow
7:19 PM 26.6 °F 15.2 °F 21.2 °F 80% 29.97 in 8.0 mi NNW 13.8 mph - 0.00 in Snow Light Snow
7:53 PM 27.0 °F 17.3 °F 21.9 °F 81% 30.02 in 9.0 mi NNW 10.4 mph - 0.00 in Snow Light Snow
8:28 PM 26.6 °F 15.2 °F 21.2 °F 80% 30.01 in 10.0 mi NNW 13.8 mph - 0.00 in   Overcast
8:53 PM 26.1 °F 15.0 °F 19.9 °F 78% 30.06 in 10.0 mi NNW 12.7 mph 19.6 mph 0.00 in Snow Light Snow
9:53 PM 25.0 °F 16.3 °F 19.0 °F 78% 30.12 in 3.0 mi NNW 8.1 mph - 0.00 in Snow Light Snow
10:03 PM 24.8 °F 14.0 °F 19.4 °F 80% 30.08 in 2.5 mi NNW 11.5 mph - 0.00 in Snow Light Snow
10:13 PM 24.8 °F 14.6 °F 19.4 °F 80% 30.09 in 3.0 mi NNW 10.4 mph - 0.00 in Snow Light Snow
11:53 PM 23.0 °F 13.9 °F 15.1 °F 72% 30.17 in 10.0 mi NNW 8.1 mph - 0.00 in   Overcast